Date String (YYYY-MM-DD hh:mm:ss) UTC,Instrument flags,absolute air pressure of the measurement (hPa),sample flow rate (lpm),inlet stack bypass flow (lpm),air temperature of the measurement (°C),ambient temperature measured by the external sensor (°C),aerosol sample conditioner tube jacket temperature (°C),OPC LED temperature (°C),internal box temperature (°C),relative humidity of the measurement (%),span deviation,mass concentration of particles derived from Lorenz-Mie calculation of OPC scattering (μg/m³),mass concentration of particles derived from Lorenz-Mie calculation of OPC scattering (μg/m³),mass concentration of particles derived from Lorenz-Mie calculation of OPC scattering (μg/m³)
DateTimeUTC,F1_M11,P_M11,Q1_M11,Q2_M11,T1_M11,T2_M11,T3_M11,T4_M11,T5_M11,U1_M11,ZSPAN_M11,X0_M11,X2_M11,X1_M11
2024-06-03 22:00:00,SystemResetWarning,0820.1,5.00,000.00,029.1,028.1,000.0,037.3,030.8,014.4,0000.0,0012.65,0004.15,0003.15
2024-06-03 22:01:00,SystemResetWarning,0820.0,4.99,000.00,029.1,028.4,000.0,037.3,030.9,015.0,0000.0,0012.75,0004.20,0003.15
2024-06-03 22:02:00,SystemResetWarning,0820.1,4.99,000.00,029.2,028.6,000.0,037.3,031.1,014.0,0000.0,0011.86,0004.20,0003.15
2024-06-03 22:03:00,SystemResetWarning,0820.1,5.00,000.00,029.3,028.8,000.0,037.4,031.2,014.1,0000.0,0010.78,0004.22,0003.15
2024-06-03 22:04:00,SystemResetWarning,0820.1,5.01,000.00,029.4,029.0,000.0,037.4,031.3,013.8,0000.0,0011.23,0004.24,0003.15
2024-06-03 22:05:00,SystemResetWarning,0820.0,5.01,000.00,029.5,029.0,000.0,037.5,031.3,014.3,0000.0,0012.61,0004.24,0003.15
2024-06-03 22:06:00,SystemResetWarning,0820.0,4.98,000.00,029.3,027.2,000.0,037.6,030.4,014.1,0000.0,0012.19,0004.16,0003.14
2024-06-03 22:07:00,SystemResetWarning,0819.9,5.01,000.00,028.9,025.6,000.0,037.6,029.6,013.9,0000.0,0012.11,0004.12,0003.13
2024-06-03 22:08:00,SystemResetWarning,0820.0,5.01,000.00,028.7,026.0,000.0,037.5,029.7,015.0,0000.0,0012.87,0004.11,0003.14
2024-06-03 22:09:00,SystemResetWarning,0820.0,4.99,000.00,028.7,026.5,000.0,037.4,030.0,014.8,0000.0,0013.25,0004.13,0003.16
2024-06-03 22:10:00,SystemResetWarning,0820.2,5.00,000.00,028.8,027.0,000.0,037.3,030.2,014.8,0000.0,0013.32,0004.12,0003.16
2024-06-03 22:11:00,SystemResetWarning,0820.0,5.01,000.00,028.9,027.4,000.0,037.3,030.4,015.2,0000.0,0013.21,0004.11,0003.17
2024-06-03 22:12:00,SystemResetWarning,0820.1,5.01,000.00,028.9,027.7,000.0,037.3,030.6,014.9,0000.0,0013.82,0004.11,0003.17
2024-06-03 22:13:00,SystemResetWarning,0820.0,4.99,000.00,029.0,028.1,000.0,037.3,030.8,014.5,0000.0,0013.92,0004.14,0003.17
2024-06-03 22:14:00,SystemResetWarning,0819.9,4.99,000.00,029.1,028.3,000.0,037.3,030.9,014.1,0000.0,0014.34,0004.18,0003.17
2024-06-03 22:15:00,SystemResetWarning,0819.9,5.00,000.00,029.2,028.6,000.0,037.3,031.0,014.8,0000.0,0014.35,0004.24,0003.19
2024-06-03 22:16:00,SystemResetWarning,0819.9,5.01,000.00,029.3,028.8,000.0,037.3,031.1,014.8,0000.0,0013.32,0004.31,0003.20
2024-06-03 22:17:00,SystemResetWarning,0819.9,5.01,000.00,029.3,028.9,000.0,037.4,031.2,014.6,0000.0,0013.08,0004.34,0003.22
2024-06-03 22:18:00,SystemResetWarning,0819.9,5.01,000.00,029.4,029.1,000.0,037.4,031.3,014.1,0000.0,0013.16,0004.37,0003.23
2024-06-03 22:19:00,SystemResetWarning,0819.9,4.98,000.00,029.4,028.0,000.0,037.5,030.7,014.1,0000.0,0012.46,0004.36,0003.23
2024-06-03 22:20:00,SystemResetWarning,0820.0,5.01,000.00,029.0,025.8,000.0,037.5,029.6,014.2,0000.0,0011.94,0004.37,0003.23
2024-06-03 22:21:00,SystemResetWarning,0819.9,5.01,000.00,028.7,025.8,000.0,037.5,029.5,014.8,0000.0,0011.60,0004.37,0003.24
2024-06-03 22:22:00,SystemResetWarning,0819.9,4.98,000.00,028.7,026.3,000.0,037.4,029.8,014.4,0000.0,0011.28,0004.35,0003.23
2024-06-03 22:23:00,SystemResetWarning,0819.9,5.01,000.00,028.7,026.8,000.0,037.3,030.1,014.4,0000.0,0010.95,0004.31,0003.23
2024-06-03 22:24:00,SystemResetWarning,0819.9,5.01,000.00,028.8,027.2,000.0,037.2,030.3,015.5,0000.0,0011.07,0004.31,0003.23
2024-06-03 22:25:00,SystemResetWarning,0820.2,5.00,000.00,028.8,027.6,000.0,037.2,030.5,015.6,0000.0,0011.72,0004.27,0003.24
2024-06-03 22:26:00,SystemResetWarning,0820.0,5.00,000.00,028.9,027.9,000.0,037.2,030.7,015.8,0000.0,0012.40,0004.23,0003.23
2024-06-03 22:27:00,SystemResetWarning,0819.9,5.00,000.00,029.0,028.2,000.0,037.2,030.8,015.3,0000.0,0012.05,0004.19,0003.22
2024-06-03 22:28:00,SystemResetWarning,0820.0,5.00,000.00,029.1,028.4,000.0,037.2,030.9,014.4,0000.0,0011.91,0004.21,0003.21
2024-06-03 22:29:00,SystemResetWarning,0819.9,4.99,000.00,029.2,028.6,000.0,037.2,031.0,014.2,0000.0,0011.80,0004.22,0003.22
2024-06-03 22:30:00,SystemResetWarning,0820.0,5.00,000.00,029.3,028.8,000.0,037.3,031.1,014.4,0000.0,0011.57,0004.18,0003.22
2024-06-03 22:31:00,SystemResetWarning,0819.8,5.00,000.00,029.4,029.0,000.0,037.3,031.2,015.1,0000.0,0012.65,0004.18,0003.21
2024-06-03 22:32:00,SystemResetWarning,0819.8,5.01,000.00,029.5,029.1,000.0,037.4,031.3,014.7,0000.0,0013.23,0004.24,0003.22
2024-06-03 22:33:00,SystemResetWarning,0820.0,4.99,000.00,029.5,028.8,000.0,037.5,031.1,014.3,0000.0,0013.62,0004.23,0003.22
2024-06-03 22:34:00,SystemResetWarning,0819.9,5.00,000.00,029.2,026.6,000.0,037.5,030.0,014.6,0000.0,0013.69,0004.25,0003.23
2024-06-03 22:35:00,SystemResetWarning,0819.8,5.01,000.00,028.8,025.6,000.0,037.5,029.5,015.5,0000.0,0013.39,0004.26,0003.24
2024-06-03 22:36:00,SystemResetWarning,0819.9,5.02,000.00,028.7,026.1,000.0,037.5,029.7,015.5,0000.0,0012.68,0004.30,0003.26
2024-06-03 22:37:00,SystemResetWarning,0819.9,4.99,000.00,028.7,026.6,000.0,037.3,030.0,015.1,0000.0,0012.77,0004.30,0003.26
2024-06-03 22:38:00,SystemResetWarning,0820.3,4.99,000.00,028.8,027.0,000.0,037.3,030.3,014.3,0000.0,0013.40,0004.28,0003.28
2024-06-03 22:39:00,SystemResetWarning,0819.9,5.00,000.00,028.8,027.4,000.0,037.2,030.5,014.7,0000.0,0014.74,0004.29,0003.29
2024-06-03 22:40:00,SystemResetWarning,0819.8,5.02,000.00,028.9,027.8,000.0,037.2,030.6,014.7,0000.0,0015.14,0004.31,0003.29
2024-06-03 22:41:00,SystemResetWarning,0819.8,5.00,000.00,029.0,028.1,000.0,037.2,030.8,013.8,0000.0,0015.39,0004.36,0003.29
2024-06-03 22:42:00,SystemResetWarning,0820.0,5.00,000.00,029.1,028.3,000.0,037.2,030.9,013.8,0000.0,0014.25,0004.32,0003.30
2024-06-03 22:43:00,SystemResetWarning,0819.9,5.00,000.00,029.2,028.6,000.0,037.3,031.0,014.0,0000.0,0013.69,0004.27,0003.30
2024-06-03 22:44:00,SystemResetWarning,0819.8,5.00,000.00,029.2,028.7,000.0,037.3,031.1,014.2,0000.0,0013.31,0004.29,0003.31
2024-06-03 22:45:00,SystemResetWarning,0819.8,4.99,000.00,029.3,028.9,000.0,037.3,031.2,013.8,0000.0,0013.49,0004.27,0003.30
2024-06-03 22:46:00,SystemResetWarning,0820.0,4.99,000.00,029.4,029.0,000.0,037.4,031.3,014.2,0000.0,0013.66,0004.27,0003.29
2024-06-03 22:47:00,SystemResetWarning,0820.3,4.99,000.00,029.5,029.1,000.0,037.4,031.3,015.1,0000.0,0013.52,0004.23,0003.28
2024-06-03 22:48:00,SystemResetWarning,0819.9,4.99,000.00,029.4,027.6,000.0,037.5,030.5,015.8,0000.0,0012.55,0004.23,0003.27
2024-06-03 22:49:00,SystemResetWarning,0819.8,5.01,000.00,028.9,025.6,000.0,037.5,029.5,016.1,0000.0,0011.82,0004.26,0003.27
2024-06-03 22:50:00,SystemResetWarning,0819.9,5.02,000.00,028.7,025.9,000.0,037.5,029.6,015.2,0000.0,0010.91,0004.26,0003.27
2024-06-03 22:51:00,SystemResetWarning,0819.9,5.00,000.00,028.7,026.4,000.0,037.4,029.9,015.2,0000.0,0011.04,0004.25,0003.28
2024-06-03 22:52:00,SystemResetWarning,0819.8,4.99,000.00,028.8,026.8,000.0,037.3,030.2,014.5,0000.0,0012.04,0004.26,0003.27
2024-06-03 22:53:00,SystemResetWarning,0819.9,4.99,000.00,028.8,027.3,000.0,037.3,030.4,014.6,0000.0,0012.15,0004.28,0003.27
2024-06-03 22:54:00,SystemResetWarning,0819.9,5.00,000.00,028.9,027.7,000.0,037.2,030.6,014.0,0000.0,0012.33,0004.30,0003.28
2024-06-03 22:55:00,SystemResetWarning,0819.8,5.00,000.00,029.0,028.0,000.0,037.2,030.7,014.0,0000.0,0012.97,0004.26,0003.27
2024-06-03 22:56:00,SystemResetWarning,0819.8,5.00,000.00,029.0,028.3,000.0,037.2,030.9,013.7,0000.0,0012.50,0004.26,0003.28
2024-06-03 22:57:00,SystemResetWarning,0819.8,5.00,000.00,029.1,028.5,000.0,037.3,031.0,013.6,0000.0,0012.76,0004.28,0003.28
2024-06-03 22:58:00,SystemResetWarning,0819.8,4.99,000.00,029.2,028.7,000.0,037.3,031.1,014.1,0000.0,0014.50,0004.30,0003.28
2024-06-03 22:59:00,SystemResetWarning,0819.8,4.99,000.00,029.3,028.8,000.0,037.3,031.2,014.6,0000.0,0014.80,0004.26,0003.29
